TimeMDT,TemperatureF,Dew PointF,Humidity,Sea Level PressureIn,VisibilityMPH,Wind Direction,Wind SpeedMPH,Gust SpeedMPH,PrecipitationIn,Events,Conditions,WindDirDegrees,DateUTC
12:56 AM,25.2,21.0,84,30.09,10.0,SSE,5.8,-,N/A,,Clear,160,2013-04-10 06:56:00
1:56 AM,25.2,20.1,81,30.11,10.0,East,3.5,-,N/A,,Clear,90,2013-04-10 07:56:00
2:56 AM,23.0,19.0,85,30.09,10.0,SSE,6.9,-,N/A,,Clear,160,2013-04-10 08:56:00
3:56 AM,22.1,17.1,81,30.09,10.0,South,4.6,-,N/A,,Clear,170,2013-04-10 09:56:00
4:56 AM,22.1,18.1,85,30.09,10.0,East,3.5,-,N/A,,Clear,100,2013-04-10 10:56:00
5:56 AM,21.0,15.1,78,30.09,10.0,WNW,3.5,-,N/A,,Clear,300,2013-04-10 11:56:00
6:56 AM,20.1,16.2,85,30.11,10.0,Calm,Calm,-,N/A,,Clear,0,2013-04-10 12:56:00
7:56 AM,24.1,15.1,69,30.11,10.0,SE,3.5,-,N/A,,Clear,140,2013-04-10 13:56:00
9:56 AM,34.0,15.1,46,30.10,10.0,Calm,Calm,-,N/A,,Clear,0,2013-04-10 15:56:00
10:56 AM,34.0,8.1,34,30.11,10.0,NW,3.5,-,N/A,,Overcast,310,2013-04-10 16:56:00
11:56 AM,37.9,14.0,38,30.09,10.0,Variable,3.5,-,N/A,,Overcast,0,2013-04-10 17:56:00
12:56 PM,38.8,18.1,43,30.08,10.0,North,9.2,-,N/A,,Partly Cloudy,360,2013-04-10 18:56:00
1:56 PM,39.9,19.0,43,30.04,10.0,NE,6.9,-,N/A,,Overcast,40,2013-04-10 19:56:00
2:56 PM,43.9,23.0,44,30.01,10.0,NNE,10.4,18.4,N/A,,Mostly Cloudy,20,2013-04-10 20:56:00
3:56 PM,45.9,26.1,46,29.98,10.0,NE,10.4,-,N/A,,Scattered Clouds,50,2013-04-10 21:56:00
4:56 PM,45.9,26.1,46,29.97,10.0,NNE,10.4,-,N/A,,Partly Cloudy,30,2013-04-10 22:56:00
5:56 PM,43.9,26.1,50,29.95,10.0,Variable,3.5,-,N/A,,Clear,0,2013-04-10 23:56:00
6:56 PM,43.9,27.1,52,29.95,10.0,ESE,4.6,-,N/A,,Clear,120,2013-04-11 00:56:00
7:56 PM,39.9,28.0,63,29.92,10.0,SE,5.8,-,N/A,,Partly Cloudy,130,2013-04-11 01:56:00
8:56 PM,36.9,29.1,74,29.89,10.0,SE,6.9,-,N/A,,Clear,130,2013-04-11 02:56:00
9:56 PM,38.8,29.1,68,29.85,10.0,SSE,6.9,-,N/A,,Mostly Cloudy,150,2013-04-11 03:56:00
10:56 PM,39.9,30.0,68,29.83,10.0,SSE,10.4,-,0.00,,Overcast,150,2013-04-11 04:56:00
11:56 PM,37.9,32.0,79,29.80,10.0,South,11.5,-,N/A,,Scattered Clouds,180,2013-04-11 05:56:00